カタログに戻る

FLOCK 4BE 18

運用中科学SSO
NORAD 60480·PAYLOAD·🇺🇸 United States

打ち上げ Aug 16, 2024 から Vandenberg Space Force Base

Loading…

次のパス (今後24時間)

TLE

最新Source: CelesTrak SupGP

元期: Sep 15, 2026, 00:45 UTC

1 60480C 24149AX  26258.03137732  .00043833  00000+0  93310-3 0  2584
2 60480  97.3675 342.8552 0002360 283.5118 170.0273 15.44947836    17

AllMySatでFLOCK 4BE 18をリアルタイム追跡

Download on the App Store